[[{"header":{"parameterUnit":"m.s-1","parameterCategory":1,"la1":30.2991,"la2":30.254,"lo1":-89.0895,"lo2":-89.0444,"dx":0.0017,"dy":0.0017,"nx":28,"ny":28,"refTime":"2022-11-29T09:00:00:Z","depth":0,"parameterNumber":2,"parameterNumberName":"U-component_of_WINDS"},"data":[0,0,0,0,0,0,0,0,0,0,0,0,0,0,0,0,0,0,0,0,0,0,0,0,0,0,0,0,0,0,0,0,0,0,0,0,0,0,0,0,0,0,0,0,0,0,0,0,0,0,0,0,0,0,0,0,0,0,-0.7226,-0.7226,0,-0.7217,-0.7217,-0.7216,-0.7218,-0.7218,-0.7218,-0.7218,-0.7209,-0.7209,-0.7208,0,0,0,0,0,0,0,0,0,0,0,0,0,-0.7245,-0.7245,-0.7226,-0.7226,-0.7226,-0.7217,-0.7217,-0.7216,-0.7218,-0.7218,-0.7218,-0.7218,-0.7209,-0.7209,-0.7208,0,0,0,0,0,0,0,0,0,0,0,0,0,-0.7236,-0.7245,-0.7226,-0.7226,-0.7225,-0.7217,-0.7217,-0.7216,-0.7218,-0.7218,-0.7218,-0.7218,-0.7209,-0.7209,-0.7208,-0.72,0,0,-0.7207,-0.7206,0,0,0,0,0,0,0,0,-0.7237,-0.7236,-0.7226,-0.7226,-0.7225,-0.7219,-0.722,-0.7211,-0.7218,-0.7221,-0.7218,-0.7218,-0.7212,-0.7211,-0.7209,-0.72,-0.7199,-0.7207,-0.7206,-0.7206,-0.7206,0,0,0,0,0,0,0,-0.7238,-0.7236,-0.7223,-0.7226,-0.7225,-0.7225,-0.7224,-0.7218,-0.7215,-0.722,-0.722,-0.7219,-0.7212,-0.721,-0.7209,-0.7199,-0.7207,-0.7206,-0.7206,-0.7205,-0.718,-0.718,0,0,0,0,0,0,-0.7238,-0.7237,-0.7223,-0.7222,-0.7232,-0.7225,-0.7224,-0.7221,-0.7215,-0.7215,-0.7219,-0.7219,-0.7211,-0.721,-0.7209,-0.7197,-0.7206,-0.7205,-0.7205,-0.7181,-0.718,-0.718,0,0,0,0,0,0,-0.7239,-0.7237,-0.7223,-0.7229,-0.7228,-0.7224,-0.7221,-0.722,-0.7218,-0.7214,-0.7214,-0.7217,-0.7211,-0.7209,-0.7202,-0.7197,-0.7205,-0.7205,-0.7181,-0.7181,-0.718,-0.7176,0,0,0,0,0,0,-0.7239,-0.7237,-0.7235,-0.7229,-0.7227,-0.7217,-0.722,-0.722,-0.7217,-0.7217,-0.7212,-0.7212,-0.7211,-0.7202,-0.7201,-0.7196,-0.7204,-0.7181,-0.7181,-0.718,-0.7176,-0.7175,-0.7174,0,0,0,0,0,-0.724,-0.7234,-0.7234,-0.7233,-0.7224,-0.7217,-0.7215,-0.7214,-0.7216,-0.7213,-0.721,-0.7212,-0.7198,-0.7202,-0.72,-0.7195,-0.7182,-0.7181,-0.718,-0.7177,-0.7175,-0.7174,0,0,0,0,0,0,-0.724,-0.7234,-0.7234,-0.7226,-0.7222,-0.7217,-0.7213,-0.7213,-0.7208,-0.7209,-0.7207,-0.7206,-0.7198,-0.7196,-0.72,-0.7186,-0.719,-0.7189,-0.7188,-0.7186,-0.7185,-0.7186,-0.7204,0,0,0,0,0,-0.7239,-0.7234,-0.7229,-0.7222,-0.722,-0.7217,-0.7214,-0.7213,-0.7208,-0.7206,-0.7203,-0.7199,-0.7193,-0.719,-0.7184,-0.7175,-0.7174,-0.7171,-0.717,-0.7169,-0.7168,-0.7162,-0.716,-0.7177,-0.7177,-0.7177,0,0,-0.7237,-0.7233,-0.723,-0.7222,-0.7219,-0.7213,-0.7215,-0.7209,-0.7205,-0.7206,-0.7198,-0.7195,-0.719,-0.7181,-0.7177,-0.7179,-0.7163,-0.7168,-0.7168,-0.7167,-0.7161,-0.7159,-0.7158,-0.7177,-0.7177,-0.7177,0,0,-0.7231,-0.7228,-0.7221,-0.7217,-0.7211,-0.7209,-0.7207,-0.7201,-0.7199,-0.7191,-0.7191,-0.7185,-0.7176,-0.7172,-0.7168,-0.7157,-0.7158,-0.7156,-0.715,-0.7144,-0.7142,-0.7141,-0.7136,-0.7134,-0.7155,-0.7155,-0.7155,0,-0.723,-0.7221,-0.7218,-0.7211,-0.7207,-0.7207,-0.72,-0.7196,-0.7189,-0.7186,-0.7188,-0.7174,-0.7171,-0.716,-0.7157,-0.7155,-0.7152,-0.7156,-0.7143,-0.7141,-0.714,-0.7135,-0.7133,-0.7154,-0.7154,-0.7154,-0.7154,0,-0.7219,-0.7212,-0.7208,-0.7199,-0.7195,-0.7188,-0.7184,-0.718,-0.7178,-0.7175,-0.7166,-0.7161,-0.7154,-0.7151,-0.7151,-0.714,-0.7141,-0.7143,-0.7147,-0.7138,-0.7133,-0.7132,-0.7154,-0.7154,-0.7154,-0.7154,0,0,-0.7214,-0.7202,-0.7201,-0.7196,-0.7188,-0.7183,-0.7175,-0.7168,-0.7163,-0.7158,-0.7151,-0.7141,-0.7142,-0.7138,-0.7137,-0.7131,-0.7121,-0.7133,-0.7133,-0.713,-0.7107,-0.7105,-0.7103,-0.7121,-0.7121,-0.712,-0.7107,0,-0.7206,-0.7193,-0.7189,-0.7177,-0.717,-0.7168,-0.7161,-0.7155,-0.7152,-0.7145,-0.7141,-0.7134,-0.7136,-0.7133,-0.7128,-0.7123,-0.7116,-0.7124,-0.7114,-0.7114,-0.7115,-0.7101,-0.71,-0.7087,-0.7105,-0.7105,-0.7105,0,-0.7196,-0.7189,-0.7176,-0.7167,-0.7164,-0.7158,-0.7149,-0.7143,-0.7135,-0.7133,-0.7127,-0.7125,-0.7116,-0.712,-0.7107,-0.7113,-0.7108,-0.7105,-0.7105,-0.7104,-0.7109,-0.7099,-0.7084,-0.7082,-0.7102,-0.7102,-0.7102,0,-0.7192,-0.718,-0.717,-0.7166,-0.7155,-0.7151,-0.7146,-0.7139,-0.7133,-0.7126,-0.7122,-0.7114,-0.7109,-0.7102,-0.7098,-0.7102,-0.7085,-0.7089,-0.7082,-0.7082,-0.7079,-0.7079,-0.7062,-0.7076,-0.7076,-0.7076,-0.7076,0,-0.7184,-0.7176,-0.7168,-0.7162,-0.7152,-0.7147,-0.7138,-0.7133,-0.7126,-0.7119,-0.7116,-0.7109,-0.7104,-0.7096,-0.7093,-0.7082,-0.708,-0.7077,-0.7076,-0.7077,-0.7077,-0.7074,-0.7075,-0.7076,-0.7076,-0.7076,-0.7076,0,-0.7179,-0.7173,-0.7162,-0.7152,-0.7149,-0.7143,-0.7134,-0.7127,-0.7123,-0.7113,-0.711,-0.7103,-0.7093,-0.7088,-0.7076,-0.7074,-0.7061,-0.7061,-0.7063,-0.7063,-0.7056,-0.7056,-0.7036,-0.7032,-0.7049,-0.7049,-0.7049,0,-0.7175,-0.7168,-0.7157,-0.7151,-0.7146,-0.7137,-0.7131,-0.7125,-0.7119,-0.7109,-0.7103,-0.7093,-0.7084,-0.7068,-0.7062,-0.7052,-0.7051,-0.7045,-0.705,-0.705,-0.705,-0.705,-0.7049,-0.7044,-0.7044,-0.7044,-0.7044,0,-0.7166,-0.7163,-0.7154,-0.7144,-0.7136,-0.7128,-0.712,-0.7115,-0.7108,-0.7101,-0.709,-0.7083,-0.707,-0.7059,-0.7048,-0.7043,-0.7042,-0.7042,-0.7039,-0.704,-0.7042,-0.704,-0.706,-0.7043,-0.7043,-0.7043,-0.7043,-0.7043,-0.7161,-0.7154,-0.7144,-0.7134,-0.7127,-0.7119,-0.7111,-0.7105,-0.7096,-0.7084,-0.7081,-0.7069,-0.7059,-0.7044,-0.7039,-0.7029,-0.703,-0.7027,-0.7026,-0.7026,-0.7025,-0.7043,-0.7027,-0.7027,-0.7027,-0.7027,-0.7027,0,-0.7152,-0.7145,-0.7135,-0.7123,-0.7114,-0.7112,-0.7103,-0.7096,-0.7085,-0.7076,-0.7067,-0.7053,-0.7042,-0.7034,-0.7022,-0.7016,-0.7015,-0.7013,-0.7014,-0.7012,-0.7025,-0.7028,-0.7014,-0.7014,-0.7014,-0.7014,-0.7014,-0.7014,-0.7146,-0.7134,-0.7129,-0.7113,-0.7106,-0.7094,-0.7088,-0.708,-0.7072,-0.7057,-0.7047,-0.7042,-0.7032,-0.7019,-0.7009,-0.7006,-0.7002,-0.7,-0.6998,-0.701,-0.7011,-0.7013,-0.7015,-0.6999,-0.6999,-0.6986,-0.6985,-0.6985]},{"header":{"parameterUnit":"m.s-1","parameterCategory":1,"la1":30.2991,"la2":30.254,"lo1":-89.0895,"lo2":-89.0444,"dx":0.0017,"dy":0.0017,"nx":28,"ny":28,"refTime":"2022-11-29T09:00:00:Z","depth":0,"parameterNumber":3,"parameterNumberName":"V-component_of_WINDS"},"data":[0,0,0,0,0,0,0,0,0,0,0,0,0,0,0,0,0,0,0,0,0,0,0,0,0,0,0,0,0,0,0,0,0,0,0,0,0,0,0,0,0,0,0,0,0,0,0,0,0,0,0,0,0,0,0,0,0,0,-6.2935,-6.2935,0,-6.2955,-6.2955,-6.2956,-6.2933,-6.2932,-6.2931,-6.2931,-6.2948,-6.2949,-6.295,0,0,0,0,0,0,0,0,0,0,0,0,0,-6.2876,-6.2878,-6.2935,-6.2935,-6.2936,-6.2955,-6.2955,-6.2956,-6.2933,-6.2932,-6.2931,-6.293,-6.2948,-6.2949,-6.2951,0,0,0,0,0,0,0,0,0,0,0,0,0,-6.29,-6.2878,-6.2935,-6.2927,-6.2926,-6.2955,-6.2955,-6.2956,-6.2933,-6.2932,-6.2931,-6.293,-6.2947,-6.2949,-6.2951,-6.2988,0,0,-6.2957,-6.2957,0,0,0,0,0,0,0,0,-6.2898,-6.2902,-6.2928,-6.2928,-6.2927,-6.294,-6.2941,-6.2966,-6.2934,-6.2931,-6.2931,-6.2929,-6.2946,-6.2948,-6.2955,-6.2988,-6.2989,-6.2957,-6.2958,-6.2959,-6.2959,0,0,0,0,0,0,0,-6.2897,-6.2901,-6.2943,-6.2928,-6.2928,-6.2922,-6.2924,-6.2946,-6.2945,-6.2931,-6.2929,-6.2932,-6.2946,-6.2953,-6.2955,-6.2989,-6.2957,-6.2958,-6.2959,-6.296,-6.3057,-6.3058,0,0,0,0,0,0,-6.2896,-6.29,-6.2942,-6.2944,-6.2909,-6.2924,-6.2926,-6.2937,-6.2945,-6.2945,-6.2933,-6.2931,-6.295,-6.2953,-6.2955,-6.3001,-6.2959,-6.296,-6.2961,-6.3056,-6.3057,-6.3059,0,0,0,0,0,0,-6.2895,-6.29,-6.2942,-6.2921,-6.2926,-6.2926,-6.2939,-6.2938,-6.2945,-6.2947,-6.2946,-6.2941,-6.2949,-6.2953,-6.2981,-6.3001,-6.2961,-6.2963,-6.3054,-6.3056,-6.3058,-6.309,0,0,0,0,0,0,-6.2894,-6.29,-6.2914,-6.2922,-6.2927,-6.2967,-6.294,-6.294,-6.2949,-6.2946,-6.2954,-6.2954,-6.2949,-6.2978,-6.2982,-6.3003,-6.2964,-6.3052,-6.3055,-6.3057,-6.3087,-6.3093,-6.3098,0,0,0,0,0,-6.2892,-6.2921,-6.2915,-6.292,-6.2945,-6.2968,-6.2971,-6.2966,-6.2951,-6.2965,-6.2966,-6.2953,-6.2998,-6.2981,-6.2986,-6.3007,-6.3051,-6.3054,-6.3057,-6.3085,-6.3092,-6.3098,0,0,0,0,0,0,-6.2914,-6.2922,-6.2915,-6.2948,-6.2958,-6.2964,-6.2982,-6.2973,-6.2986,-6.2983,-6.2975,-6.2977,-6.3007,-6.3009,-6.299,-6.3044,-6.3022,-6.3026,-6.3041,-6.3048,-6.3054,-6.3052,-6.2966,0,0,0,0,0,-6.2923,-6.2942,-6.2947,-6.2976,-6.2981,-6.2981,-6.2991,-6.2986,-6.2995,-6.2999,-6.3002,-6.3011,-6.3027,-6.3038,-6.3052,-6.3088,-6.309,-6.3105,-6.3111,-6.3115,-6.3119,-6.314,-6.3147,-6.307,-6.307,-6.307,0,0,-6.2941,-6.2948,-6.296,-6.2981,-6.2988,-6.3007,-6.2984,-6.3005,-6.302,-6.3002,-6.3029,-6.3032,-6.3041,-6.3074,-6.3088,-6.3077,-6.3141,-6.3119,-6.3123,-6.3124,-6.3144,-6.3151,-6.3158,-6.3072,-6.3071,-6.3071,0,0,-6.2984,-6.2991,-6.3017,-6.3025,-6.3037,-6.3037,-6.3043,-6.3052,-6.3054,-6.3081,-6.3069,-6.3086,-6.3113,-6.3121,-6.3129,-6.3179,-6.3168,-6.3184,-6.3212,-6.3233,-6.3239,-6.3244,-6.3263,-6.327,-6.3188,-6.3188,-6.3188,0,-6.3005,-6.3035,-6.303,-6.3054,-6.3064,-6.3051,-6.3077,-6.3085,-6.31,-6.3107,-6.3095,-6.3132,-6.3136,-6.3172,-6.3184,-6.3191,-6.3198,-6.3183,-6.3238,-6.3244,-6.3249,-6.3267,-6.3274,-6.319,-6.319,-6.3189,-6.3189,0,-6.306,-6.3081,-6.3101,-6.3119,-6.3131,-6.3155,-6.3155,-6.3168,-6.3163,-6.3165,-6.3194,-6.32,-6.3217,-6.3225,-6.3219,-6.326,-6.3253,-6.324,-6.3217,-6.3258,-6.3275,-6.3282,-6.3193,-6.3192,-6.3191,-6.3191,0,0,-6.3116,-6.3134,-6.3141,-6.315,-6.3164,-6.318,-6.3204,-6.3223,-6.3234,-6.3246,-6.3267,-6.3292,-6.3281,-6.329,-6.3285,-6.3303,-6.3344,-6.3288,-6.3288,-6.3299,-6.3391,-6.3401,-6.3409,-6.3337,-6.3339,-6.334,-6.3391,0,-6.316,-6.3204,-6.3203,-6.3244,-6.3264,-6.3254,-6.3275,-6.3286,-6.3289,-6.3306,-6.3308,-6.3327,-6.331,-6.3315,-6.3333,-6.3336,-6.3363,-6.3332,-6.3357,-6.3357,-6.3355,-6.3418,-6.3428,-6.3476,-6.3397,-6.3398,-6.3399,0,-6.3218,-6.3234,-6.3278,-6.3292,-6.33,-6.3319,-6.3338,-6.3354,-6.3367,-6.3367,-6.3379,-6.3372,-6.3397,-6.3375,-6.341,-6.3389,-6.3399,-6.3402,-6.3404,-6.3406,-6.3381,-6.3422,-6.3491,-6.3498,-6.3409,-6.3408,-6.3407,0,-6.3255,-6.3288,-6.332,-6.3327,-6.3343,-6.3358,-6.3365,-6.3376,-6.3388,-6.3404,-6.3412,-6.3429,-6.3439,-6.3453,-6.3452,-6.3435,-6.3488,-6.3464,-6.3489,-6.3489,-6.35,-6.35,-6.3572,-6.3506,-6.3506,-6.3506,-6.3506,0,-6.3305,-6.3333,-6.3337,-6.3356,-6.3387,-6.3386,-6.3416,-6.3421,-6.3432,-6.3452,-6.3443,-6.3462,-6.3459,-6.3478,-6.3477,-6.3507,-6.3511,-6.3512,-6.3512,-6.3513,-6.3513,-6.352,-6.3516,-6.3508,-6.3507,-6.3507,-6.3507,0,-6.3352,-6.3356,-6.339,-6.3404,-6.3408,-6.343,-6.3441,-6.346,-6.3463,-6.3488,-6.3494,-6.3499,-6.3521,-6.3521,-6.3545,-6.3545,-6.3582,-6.3577,-6.3578,-6.3577,-6.3602,-6.36,-6.3682,-6.3693,-6.3619,-6.362,-6.3621,0,-6.3384,-6.3405,-6.3423,-6.3436,-6.3445,-6.3467,-6.348,-6.348,-6.3494,-6.3512,-6.3528,-6.355,-6.3567,-6.3603,-6.3608,-6.3627,-6.3623,-6.365,-6.3625,-6.3627,-6.3624,-6.3623,-6.3626,-6.3655,-6.3656,-6.3656,-6.3657,0,-6.344,-6.3442,-6.3462,-6.3484,-6.3501,-6.3518,-6.3533,-6.3544,-6.3546,-6.3562,-6.3586,-6.36,-6.3627,-6.3648,-6.3668,-6.3674,-6.3666,-6.3665,-6.3672,-6.3674,-6.3674,-6.3675,-6.3592,-6.3663,-6.3662,-6.3662,-6.3661,-6.3661,-6.3481,-6.35,-6.3517,-6.354,-6.3553,-6.3568,-6.3587,-6.3594,-6.3614,-6.3637,-6.3636,-6.3662,-6.3676,-6.3701,-6.371,-6.373,-6.3721,-6.373,-6.3733,-6.3735,-6.3739,-6.3671,-6.3734,-6.3733,-6.3733,-6.3733,-6.3733,0,-6.3538,-6.3549,-6.3571,-6.3594,-6.3613,-6.3606,-6.3624,-6.3639,-6.3664,-6.3678,-6.3696,-6.3725,-6.3746,-6.3754,-6.3776,-6.3791,-6.3788,-6.3796,-6.3795,-6.3797,-6.3745,-6.3738,-6.3799,-6.3799,-6.3799,-6.3799,-6.3799,-6.3799,-6.3569,-6.3603,-6.3607,-6.3647,-6.3658,-6.3685,-6.3696,-6.3711,-6.3723,-6.3755,-6.3774,-6.378,-6.3792,-6.3815,-6.3835,-6.3836,-6.3845,-6.3855,-6.3856,-6.3807,-6.3801,-6.3794,-6.3787,-6.3857,-6.3857,-6.3906,-6.3906,-6.3907]}]]